轨道通信卫星FM30星 (ORBCOMM FM30)

导读

ORBCOMM FM 30于1999年12月4日发射,归属ORBCOMM低地球轨道卫星通信系统。该系统聚焦物联网与机器对机器通信,依靠低轨星座优势,提供全球低成本窄带数据传输,在车辆跟踪、远程监测等场景应用广泛。作为星座中一员,它延续了系统设计特点,工作于VHF/UHF频段,体积小巧无需复杂推进系统,为全球短消息通信和数据交换提供支撑,助力实现偏远地区物联网连接与资产监控服务。

基本信息
目录编号:
25980
目录名称:
ORBCOMM FM 30
国际标识:
1999-065A
轨道中心:
EARTH
卫星名称:
轨道通信卫星FM30星
卫星全名:
轨道通信卫星FM30星 (ORBCOMM FM30)
卫星状态:
在轨 (已飞行9687 天)
发射日期:
1999-12-04 UTC
国别 :
(ORB)
星等 :
--
轨道信息
数据来源 国际轨道数据 AOE轨道数据
星历时间 2026-06-11T17:15:41+0800
1天前
查看轨道信息
2026-06-11T09:00:00+0800
1天前
查看轨道信息
半长轴 7142.777km 7142.785km
偏心率 0.0006375 0.0006143
轨道倾角 45.029° 45.029°
近地点辐角 345.993° 343.331°
升交点赤经 188.302° 189.935°
平近点角 14.074° 32.873°
近地点 760.086km 760.26km
远地点 769.194km 769.036km
周期 100.129分钟 100.129分钟
每日圈数 14.381432 14.381409
详细信息
固有亮度:
8
最大亮度:
6.9
平衡模式:
三轴稳定
覆盖范围:
全球
运营商:
轨道通信公司
运营商所在国:
美国
制造商(研发单位):
轨道ATK公司
制造商所在国:
美国
使用方式:
暂无
卫星简介
轨道通信FM(Orbcomm FM)是一系列低地球轨道通信卫星,由美国卫星通信公司 Orbcomm运营。 截至2015年12月,已有63颗此类卫星绕地球运行。该卫星已退役。
2D轨道图
3D轨道图
轨道高度分析图
轨道倾角分析图
轨道综合分析图
查看轨道综合分析图